Date String (YYYY-MM-DD hh:mm:ss) UTC,Instrument flags,Ambient pressure (hPa),Sample flow (lpm),Bypass flow (lpm),Sample temperature (°C),Ambient temperature (°C),ASC tube jacket temperature (°C),LED temperature (°C),Box temperature (°C),Sample RH (%),Span deviation,Mass concentration (μg/m³),Mass concentration (μg/m³),Mass concentration (μg/m³)
DateTimeUTC,F1_M11,P_M11,Q1_M11,Q2_M11,T1_M11,T2_M11,T3_M11,T4_M11,T5_M11,U1_M11,ZSPAN_M11,X0_M11,X2_M11,X1_M11
2021-09-05 01:00:00,,0829.0,5.01,0.00,29.2,27.2,00.0,38.3,30.9,23.6,0002.0,0031.44,0017.26,0015.98
2021-09-05 01:01:00,,0829.0,4.99,0.00,29.2,27.6,00.0,38.3,31.0,23.5,0002.0,0032.23,0017.24,0015.96
2021-09-05 01:02:00,,0829.0,4.99,0.00,29.2,27.9,00.0,38.3,31.1,23.5,0001.8,0031.71,0017.22,0015.96
2021-09-05 01:03:00,,0829.0,5.00,0.00,29.3,28.1,00.0,38.3,31.2,23.4,0001.8,0032.16,0017.25,0015.96
2021-09-05 01:04:00,,0829.0,5.01,0.00,29.4,28.4,00.0,38.3,31.3,23.3,0001.7,0033.00,0017.37,0015.99
2021-09-05 01:05:00,,0829.0,5.01,0.00,29.4,28.5,00.0,38.3,31.3,23.2,0001.5,0032.93,0017.36,0015.99
2021-09-05 01:06:00,,0829.0,5.01,0.00,29.5,28.7,00.0,38.4,31.4,23.2,0001.4,0032.56,0017.31,0015.99
2021-09-05 01:07:00,,0829.1,5.01,0.00,29.5,28.8,00.0,38.4,31.4,23.1,0001.5,0033.09,0017.37,0016.04
2021-09-05 01:08:00,,0829.1,5.01,0.00,29.5,27.4,00.0,38.4,31.0,23.1,0001.4,0032.95,0017.37,0016.04
2021-09-05 01:09:00,,0829.0,4.98,0.00,29.3,25.7,00.0,38.4,30.6,23.4,0001.3,0032.18,0017.36,0016.04
2021-09-05 01:10:00,,0829.0,5.01,0.00,29.2,25.6,00.0,38.3,30.5,23.6,0001.2,0031.70,0017.42,0016.07
2021-09-05 01:11:00,,0829.0,5.00,0.00,29.1,26.0,00.0,38.3,30.6,23.7,0001.2,0031.63,0017.43,0016.08
2021-09-05 01:12:00,,0828.9,5.00,0.00,29.1,26.5,00.0,38.3,30.7,23.7,0001.1,0030.98,0017.43,0016.07
2021-09-05 01:13:00,,0829.0,5.00,0.00,29.1,27.0,00.0,38.2,30.9,23.7,0001.2,0030.46,0017.41,0016.05
2021-09-05 01:14:00,,0829.0,5.00,0.00,29.2,27.4,00.0,38.2,31.0,23.7,0001.2,0029.49,0017.35,0016.02
2021-09-05 01:15:00,,0829.0,5.01,0.00,29.2,27.7,00.0,38.2,31.0,23.6,0001.3,0027.74,0017.25,0015.99
2021-09-05 01:16:00,,0829.0,4.99,0.00,29.2,28.0,00.0,38.3,31.1,23.5,0001.3,0027.76,0017.22,0016.00
2021-09-05 01:17:00,,0829.1,5.00,0.00,29.3,28.2,00.0,38.3,31.2,23.5,0001.3,0027.55,0017.23,0015.99
2021-09-05 01:18:00,,0829.1,4.99,0.00,29.4,28.4,00.0,38.3,31.3,23.4,0001.2,0026.73,0017.13,0015.94
2021-09-05 01:19:00,,0829.1,5.01,0.00,29.4,28.6,00.0,38.3,31.3,23.3,0001.5,0025.96,0017.12,0015.91
2021-09-05 01:20:00,,0829.1,4.99,0.00,29.5,28.8,00.0,38.4,31.4,23.3,0001.4,0025.32,0017.10,0015.90
2021-09-05 01:21:00,,0829.2,5.01,0.00,29.5,28.8,00.0,38.4,31.4,23.2,0001.4,0025.95,0017.07,0015.88
2021-09-05 01:22:00,,0829.3,5.01,0.00,29.5,27.2,00.0,38.4,31.0,23.2,0001.4,0026.70,0017.07,0015.89
2021-09-05 01:23:00,,0829.2,4.98,0.00,29.3,25.6,00.0,38.4,30.6,23.4,0001.5,0026.35,0017.08,0015.91
2021-09-05 01:24:00,,0829.3,5.01,0.00,29.2,25.6,00.0,38.4,30.6,23.5,0001.4,0027.69,0017.14,0015.91
2021-09-05 01:25:00,,0829.2,5.00,0.00,29.1,26.0,00.0,38.3,30.7,23.6,0001.3,0028.42,0017.13,0015.90
2021-09-05 01:26:00,,0829.2,5.00,0.00,29.1,26.6,00.0,38.3,30.7,23.7,0001.3,0029.05,0017.07,0015.88
2021-09-05 01:27:00,,0829.3,5.00,0.00,29.1,27.0,00.0,38.3,30.9,23.7,0001.3,0028.73,0017.08,0015.85
2021-09-05 01:28:00,,0829.2,5.01,0.00,29.2,27.4,00.0,38.2,31.0,23.6,0001.3,0028.84,0017.13,0015.85
2021-09-05 01:29:00,,0829.4,5.00,0.00,29.2,27.7,00.0,38.2,31.0,23.6,0001.4,0028.73,0017.13,0015.83
2021-09-05 01:30:00,,0829.3,4.99,0.00,29.2,28.0,00.0,38.3,31.1,23.5,0001.2,0029.58,0017.15,0015.82
2021-09-05 01:31:00,,0829.4,5.00,0.00,29.3,28.2,00.0,38.3,31.2,23.4,0001.2,0030.37,0017.17,0015.80
2021-09-05 01:32:00,,0829.5,5.00,0.00,29.3,28.4,00.0,38.3,31.2,23.4,0001.1,0030.03,0017.16,0015.79
2021-09-05 01:33:00,,0829.5,4.99,0.00,29.4,28.6,00.0,38.3,31.3,23.5,0001.1,0029.52,0017.17,0015.79
2021-09-05 01:34:00,,0829.5,5.00,0.00,29.5,28.7,00.0,38.4,31.4,23.7,0001.1,0030.13,0017.17,0015.76
2021-09-05 01:35:00,,0829.5,5.00,0.00,29.5,28.8,00.0,38.4,31.4,23.7,0001.1,0029.77,0017.07,0015.73
2021-09-05 01:36:00,,0829.5,5.00,0.00,29.5,28.0,00.0,38.4,31.2,23.7,0001.1,0030.52,0017.04,0015.69
2021-09-05 01:37:00,,0829.5,5.00,0.00,29.4,26.0,00.0,38.4,30.7,23.9,0001.0,0030.09,0016.99,0015.66
2021-09-05 01:38:00,,0829.5,5.00,0.00,29.2,25.4,00.0,38.4,30.5,24.1,0001.1,0030.90,0016.99,0015.66
2021-09-05 01:39:00,,0829.5,5.01,0.00,29.1,25.8,00.0,38.3,30.5,24.1,0001.0,0030.70,0016.90,0015.63
2021-09-05 01:40:00,,0829.5,5.00,0.00,29.1,26.3,00.0,38.3,30.6,24.6,0000.9,0031.74,0016.89,0015.61
2021-09-05 01:41:00,,0829.5,5.00,0.00,29.1,26.8,00.0,38.3,30.8,25.0,0001.1,0030.66,0016.82,0015.59
2021-09-05 01:42:00,,0829.5,5.00,0.00,29.1,27.2,00.0,38.2,30.9,25.2,0001.3,0029.83,0016.79,0015.57
2021-09-05 01:43:00,,0829.4,5.01,0.00,29.2,27.6,00.0,38.2,31.0,25.1,0001.3,0030.28,0016.71,0015.53
2021-09-05 01:44:00,,0829.5,4.99,0.00,29.2,27.9,00.0,38.3,31.0,25.1,0001.4,0030.62,0016.65,0015.49
2021-09-05 01:45:00,,0829.5,5.00,0.00,29.3,28.1,00.0,38.3,31.1,25.0,0001.6,0030.23,0016.58,0015.47
2021-09-05 01:46:00,,0829.5,5.00,0.00,29.3,28.3,00.0,38.3,31.2,24.6,0001.6,0029.63,0016.56,0015.45
2021-09-05 01:47:00,,0829.4,5.00,0.00,29.3,28.5,00.0,38.3,31.3,24.1,0001.6,0028.41,0016.54,0015.44
2021-09-05 01:48:00,,0829.4,5.00,0.00,29.4,28.6,00.0,38.3,31.3,23.6,0001.7,0028.22,0016.53,0015.42
2021-09-05 01:49:00,,0829.3,5.00,0.00,29.5,28.8,00.0,38.4,31.4,23.2,0001.6,0027.25,0016.47,0015.40
2021-09-05 01:50:00,,0829.3,4.99,0.00,29.5,28.9,00.0,38.4,31.4,23.3,0001.5,0027.06,0016.44,0015.42
2021-09-05 01:51:00,,0829.3,5.00,0.00,29.5,27.9,00.0,38.4,31.2,23.3,0001.5,0026.01,0016.45,0015.43
2021-09-05 01:52:00,,0829.2,5.00,0.00,29.4,26.5,00.0,38.4,30.8,23.4,0001.2,0025.82,0016.43,0015.43
2021-09-05 01:53:00,,0829.2,5.00,0.00,29.3,26.5,00.0,38.4,30.8,23.5,0001.1,0025.59,0016.39,0015.42
2021-09-05 01:54:00,,0829.3,5.00,0.00,29.3,26.9,00.0,38.4,30.9,23.5,0001.2,0024.66,0016.40,0015.42
2021-09-05 01:55:00,,0829.3,4.99,0.00,29.3,27.2,00.0,38.4,31.0,23.5,0001.2,0023.21,0016.34,0015.41
2021-09-05 01:56:00,,0829.2,5.00,0.00,29.3,27.6,00.0,38.3,31.1,23.6,0001.0,0022.74,0016.35,0015.39
2021-09-05 01:57:00,,0829.2,5.00,0.00,29.3,27.9,00.0,38.4,31.1,23.6,0001.0,0021.95,0016.36,0015.38
2021-09-05 01:58:00,,0829.2,5.00,0.00,29.4,28.1,00.0,38.4,31.2,23.6,0001.3,0021.64,0016.37,0015.41
2021-09-05 01:59:00,,0829.3,5.00,0.00,29.4,28.4,00.0,38.4,31.3,23.6,0001.4,0021.43,0016.41,0015.43
